Stündliche Wetter Warzechowka

Heute, 26 Oktober, Montag

Zeit Temperatur Niederschläge Wind Luftdruck Luftfeuchtigkeit
00:00 +9°C° 0 mm 1 m/S 705 mmHg 93%
01:00 +9°C° 0 mm 1 m/S 705 mmHg 94%
02:00 +9°C° 0 mm 1 m/S 705 mmHg 93%
03:00 +9°C° 0 mm 1 m/S 704 mmHg 93%
04:00 +9°C° 0 mm 1 m/S 704 mmHg 93%
05:00 +9°C° 0 mm 1 m/S 704 mmHg 93%
06:00 +9°C° 0 mm 1 m/S 704 mmHg 93%
07:00 +9°C° 0 mm 1 m/S 704 mmHg 92%
08:00 +10°C° 0 mm 2 m/S 704 mmHg 85%
09:00 +13°C° 0 mm 2 m/S 704 mmHg 77%
10:00 +14°C° 0 mm 3 m/S 704 mmHg 69%
11:00 +15°C° 0 mm 2 m/S 704 mmHg 68%
12:00 +15°C° 0 mm 2 m/S 704 mmHg 66%
13:00 +15°C° 0 mm 2 m/S 704 mmHg 65%
14:00 +14°C° 0 mm 2 m/S 704 mmHg 70%
15:00 +14°C° 0 mm 2 m/S 703 mmHg 74%
16:00 +13°C° 0 mm 2 m/S 703 mmHg 79%
17:00 +12°C° 0 mm 2 m/S 703 mmHg 82%
18:00 +11°C° 0 mm 1 m/S 703 mmHg 85%
19:00 +11°C° 0 mm 1 m/S 703 mmHg 88%
20:00 +11°C° 0 mm 1 m/S 703 mmHg 88%
21:00 +11°C° 0 mm 1 m/S 704 mmHg 88%
22:00 +11°C° 0 mm 1 m/S 704 mmHg 88%
23:00 +11°C° 0 mm 1 m/S 704 mmHg 90%

Morgen, 27 Oktober, Dienstag

Zeit Temperatur Niederschläge Wind Luftdruck Luftfeuchtigkeit
00:00 +9°C° 0 mm 2 m/S 704 mmHg 92%
01:00 +9°C° 0 mm 2 m/S 704 mmHg 93%
02:00 +9°C° 0 mm 2 m/S 704 mmHg 93%
03:00 +9°C° 0 mm 2 m/S 704 mmHg 92%
04:00 +8°C° 0 mm 2 m/S 704 mmHg 92%
05:00 +8°C° 0 mm 2 m/S 704 mmHg 92%
06:00 +8°C° 0 mm 2 m/S 704 mmHg 91%
07:00 +9°C° 0 mm 2 m/S 704 mmHg 91%
08:00 +10°C° 0 mm 2 m/S 705 mmHg 83%
09:00 +13°C° 0 mm 2 m/S 705 mmHg 75%
10:00 +14°C° 0 mm 3 m/S 706 mmHg 67%
11:00 +16°C° 0 mm 3 m/S 706 mmHg 63%
12:00 +17°C° 0 mm 3 m/S 706 mmHg 60%
13:00 +17°C° 0 mm 3 m/S 706 mmHg 56%
14:00 +16°C° 0 mm 2 m/S 705 mmHg 62%
15:00 +15°C° 0 mm 2 m/S 705 mmHg 68%
16:00 +14°C° 0 mm 1 m/S 705 mmHg 74%
17:00 +13°C° 0 mm 1 m/S 705 mmHg 77%
18:00 +12°C° 0 mm 1 m/S 706 mmHg 80%
19:00 +11°C° 0 mm 1 m/S 706 mmHg 82%
20:00 +11°C° 0 mm 1 m/S 706 mmHg 83%
21:00 +11°C° 0 mm 1 m/S 706 mmHg 85%
22:00 +11°C° 0 mm 1 m/S 707 mmHg 86%
23:00 +10°C° 0 mm 1 m/S 707 mmHg 87%

übermorgen, 28 Oktober, Mittwoch

Zeit Temperatur Niederschläge Wind Luftdruck Luftfeuchtigkeit
00:00 +10°C° 0 mm 1 m/S 707 mmHg 89%
01:00 +9°C° 0 mm 1 m/S 707 mmHg 91%
02:00 +9°C° 0 mm 1 m/S 707 mmHg 92%
03:00 +8°C° 0 mm 0 m/S 707 mmHg 92%
04:00 +7°C° 0 mm 0 m/S 707 mmHg 92%
05:00 +7°C° 0 mm 0 m/S 707 mmHg 92%
06:00 +7°C° 0 mm 0 m/S 707 mmHg 92%
07:00 +7°C° 0 mm 0 m/S 707 mmHg 92%
08:00 +9°C° 0 mm 0 m/S 708 mmHg 85%
09:00 +11°C° 0 mm 0 m/S 708 mmHg 78%
10:00 +13°C° 0 mm 0 m/S 708 mmHg 71%
11:00 +15°C° 0 mm 1 m/S 708 mmHg 69%
12:00 +15°C° 0 mm 1 m/S 708 mmHg 66%
13:00 +16°C° 0 mm 1 m/S 708 mmHg 64%
14:00 +15°C° 0.1 mm 1 m/S 708 mmHg 70%
15:00 +14°C° 0.1 mm 1 m/S 708 mmHg 77%
16:00 +12°C° 0.1 mm 0 m/S 708 mmHg 83%
17:00 +11°C° 0 mm 0 m/S 708 mmHg 86%
18:00 +10°C° 0 mm 0 m/S 708 mmHg 89%
19:00 +9°C° 0 mm 0 m/S 708 mmHg 91%
20:00 +10°C° 0 mm 1 m/S 708 mmHg 92%
21:00 +10°C° 0 mm 1 m/S 708 mmHg 93%
22:00 +9°C° 0 mm 1 m/S 708 mmHg 93%
23:00 +9°C° 0 mm 1 m/S 708 mmHg 94%

29 Oktober, Donnerstag

Zeit Temperatur Niederschläge Wind Luftdruck Luftfeuchtigkeit
00:00 +9°C° 0 mm 1 m/S 708 mmHg 94%
01:00 +9°C° 0 mm 1 m/S 708 mmHg 94%
02:00 +9°C° 0 mm 1 m/S 708 mmHg 94%
03:00 +8°C° 0 mm 1 m/S 708 mmHg 94%
04:00 +8°C° 0 mm 1 m/S 709 mmHg 94%
05:00 +8°C° 0 mm 1 m/S 709 mmHg 92%
06:00 +8°C° 0 mm 1 m/S 709 mmHg 90%
07:00 +8°C° 0 mm 1 m/S 709 mmHg 88%
08:00 +10°C° 0 mm 1 m/S 710 mmHg 81%
09:00 +12°C° 0 mm 1 m/S 710 mmHg 74%
10:00 +14°C° 0 mm 1 m/S 710 mmHg 67%
11:00 +14°C° 0 mm 1 m/S 710 mmHg 64%
12:00 +15°C° 0 mm 2 m/S 711 mmHg 62%
13:00 +15°C° 0 mm 2 m/S 711 mmHg 59%
14:00 +14°C° 0 mm 2 m/S 711 mmHg 66%
15:00 +13°C° 0 mm 2 m/S 710 mmHg 73%
16:00 +11°C° 0 mm 1 m/S 710 mmHg 80%
17:00 +11°C° 0 mm 1 m/S 711 mmHg 82%
18:00 +9°C° 0 mm 2 m/S 711 mmHg 84%
19:00 +8°C° 0 mm 2 m/S 712 mmHg 86%
20:00 +8°C° 0 mm 2 m/S 712 mmHg 87%
21:00 +8°C° 0 mm 2 m/S 712 mmHg 88%
22:00 +7°C° 0 mm 2 m/S 712 mmHg 89%
23:00 +7°C° 0 mm 2 m/S 712 mmHg 89%

30 Oktober, Freitag

Zeit Temperatur Niederschläge Wind Luftdruck Luftfeuchtigkeit
00:00 +7°C° 0 mm 2 m/S 712 mmHg 89%
01:00 +7°C° 0 mm 2 m/S 712 mmHg 89%
02:00 +7°C° 0 mm 2 m/S 713 mmHg 89%
03:00 +6°C° 0 mm 2 m/S 713 mmHg 89%
04:00 +6°C° 0 mm 2 m/S 713 mmHg 89%
05:00 +6°C° 0 mm 2 m/S 713 mmHg 88%
06:00 +6°C° 0 mm 2 m/S 713 mmHg 87%
07:00 +7°C° 0 mm 2 m/S 713 mmHg 86%
08:00 +8°C° 0 mm 3 m/S 713 mmHg 80%
09:00 +10°C° 0 mm 3 m/S 714 mmHg 75%
10:00 +11°C° 0 mm 3 m/S 714 mmHg 69%
11:00 +12°C° 0 mm 3 m/S 714 mmHg 68%
12:00 +12°C° 0 mm 3 m/S 714 mmHg 67%
13:00 +13°C° 0 mm 3 m/S 714 mmHg 66%
14:00 +12°C° 0 mm 3 m/S 714 mmHg 70%
15:00 +12°C° 0 mm 2 m/S 714 mmHg 74%
16:00 +12°C° 0 mm 2 m/S 714 mmHg 78%
17:00 +10°C° 0 mm 2 m/S 714 mmHg 79%
18:00 +9°C° 0 mm 2 m/S 714 mmHg 81%
19:00 +9°C° 0 mm 2 m/S 714 mmHg 82%
20:00 +8°C° 0 mm 2 m/S 714 mmHg 81%
21:00 +8°C° 0 mm 2 m/S 714 mmHg 80%
22:00 +8°C° 0 mm 2 m/S 714 mmHg 79%
23:00 +8°C° 0 mm 2 m/S 714 mmHg 78%

31 Oktober, Samstag

Zeit Temperatur Niederschläge Wind Luftdruck Luftfeuchtigkeit
00:00 +8°C° 0 mm 2 m/S 714 mmHg 78%
01:00 +7°C° 0 mm 2 m/S 714 mmHg 77%
02:00 +7°C° 0 mm 2 m/S 714 mmHg 77%
03:00 +7°C° 0 mm 2 m/S 713 mmHg 77%
04:00 +8°C° 0 mm 1 m/S 713 mmHg 77%
05:00 +8°C° 0 mm 1 m/S 713 mmHg 77%
06:00 +8°C° 0 mm 1 m/S 713 mmHg 77%
07:00 +8°C° 0 mm 1 m/S 713 mmHg 76%
Mehr zeigen

Wir brauchen deine Erlaubnis

Meteoprog und unser Service Anbieter werden persönliche Daten aufbewahren, so wie Cookies, Geräte Bezeichnung oder ähnliche Technologien von deinem Gerät und Prozess, so wie Persönliche Daten Inhalte und Werbungen, genauso wie social Media und den Verkehr zu analysieren.

  • Aufbewahrung und/oder Zugang zu deiner Geräte Informationen.

    Cookies, Geräte Bezeichnung oder andere Informationen, können aufbewahrt oder Zugang zu deinem Gerät erhalten, für den Grund, der oben angegeben wird.

  • Personalisierte Werbung und Inhalte, Messungen, Einblick in das Publikum und Produkt Entwicklung.

    Werbungen und Inhalte können personalisiert werden, basierend auf ein Profil. Mehr Daten können besser personalisierte Werbungen und Inhalte hinzufügen. Werbung und Inhalte können gezeigt und gemessen werden. Einblicke über das Publikum, welche die Werbung gesehen haben und den Inhalt, können abgeleitet werden. So wie Daten können genutzt werden, um es zu verbessern oder die Benutzer Erfahrung zu verbessern das System und die Software.

Wenn du “Ich stimme zu” klickst, erlaubst du uns, die Cookies zu benutzen die Geräte Bezeichnung, den Web oder ähnliche Technologien zu benutzen. Deine Settings, können in deinem Gerät bei deinem Browser geändert werden.

Für den bestimmten Zweck, berechtigten Interessen beruhen darauf, mehr als auf den Inhalt. Du kannst mehr darüber in unseren Privaten und Cookie Politik lesen.